SCP
1 1 1 0 0 0 0 0 0 0 0 0 0 0 0 0 0 0 0 1 1 1 1 0 0 0 0 0 0 0 0 0 0 0 0 0 0 0 0 0 0 0 0
1 1 1 0 0 0 0 0 0 0 0 0 0 0 0 0 0 0 0 1 1 1 1 0 0 0 0 0 0 0 0 0 0 0 0 0 0 0 0 0 0 0 0
1 1 1 0 0 0 0 0 0 0 0 0 0 0 0 0 0 0 0 0 0 0 1 1 0 0 0 0 0 0 0 0 0 0 0 0 0 0 0 0 0 0 0
1 1 1 0 0 0 0 0 0 0 0 0 0 0 0 0 0 0 0 0 0 0 0 1 0 0 0 0 0 0 0 0 1 0 0 0 0 0 0 0 0 0 0
1 1 0 0 0 0 0 0 0 0 0 0 0 0 0 0 0 0 0 0 0 0 0 0 0 0 0 0 0 0 1 1 1 1 0 0 0 0 0 0 0 0 0
1 1 0 0 0 0 0 0 0 0 0 0 0 0 0 0 0 0 0 0 0 0 0 0 0 0 0 1 1 1 1 1 1 1 1 0 0 0 0 0 0 0 0
1 1 0 0 0 0 0 0 0 0 0 0 0 0 0 0 0 0 0 0 0 0 0 0 0 0 0 0 1 1 1 1 1 1 1 1 1 1 0 0 0 0 0
1 1 1 0 0 0 0 0 0 0 0 0 0 0 0 0 0 0 0 0 0 0 0 0 0 0 0 0 0 1 1 1 1 1 1 1 1 1 1 0 0 0 0
1 1 1 0 0 0 0 0 0 0 0 0 0 0 0 0 0 0 0 0 0 0 0 0 0 0 0 0 0 0 0 1 1 1 1 1 1 1 1 1 1 0 0
1 1 0 0 0 0 0 0 0 0 0 0 0 0 0 0 0 0 0 0 0 0 0 0 0 0 0 0 0 0 0 1 1 1 1 1 1 1 1 1 1 1 1
0 0 0 0 0 0 0 0 0 0 0 0 0 0 0 0 0 0 0 0 0 0 0 0 0 0 0 0 0 0 0 0 1 1 1 1 1 1 1 1 1 1 1
0 0 0 0 0 0 0 0 0 0 0 0 0 0 0 0 0 0 0 0 0 0 0 0 0 0 0 0 0 0 0 0 0 1 1 1 1 1 1 1 0 1 1
0 0 1 1 1 1 1 1 1 1 0 0 0 0 0 0 0 0 0 0 0 0 0 0 0 0 0 0 0 0 0 0 0 0 0 0 1 1 1 1 0 0 0
0 0 1 1 1 1 1 1 1 1 0 0 0 0 0 0 0 0 0 0 0 0 0 0 0 0 0 0 0 0 0 1 0 0 0 0 0 0 0 0 0 0 0
0 0 1 1 1 1 2 1 1 1 0 0 0 0 0 0 0 0 0 0 0 0 0 0 0 0 0 0 0 0 0 0 0 0 0 0 0 0 0 0 0 0 0
0 1 1 1 1 1 1 1 1 1 0 0 0 0 0 0 0 0 0 0 0 0 0 0 0 0 0 0 0 0 0 0 0 0 0 0 0 0 0 0 0 0 0
0 1 1 1 1 1 1 1 1 0 0 0 0 0 0 0 0 0 0 0 0 0 0 0 0 0 0 0 0 0 0 0 0 0 0 0 0 0 0 0 0 0 0
0 0 0 1 1 1 1 1 1 1 0 0 0 0 0 0 0 0 0 0 0 0 0 0 0 0 0 0 0 0 0 0 0 0 0 0 0 0 0 0 0 0 0
0 0 0 1 1 1 1 1 1 0 0 0 0 0 0 0 0 0 0 0 0 0 0 0 0 0 0 0 0 0 0 0 0 0 0 0 0 0 0 0 0 0 0
1 1 1 1 1 1 1 1 0 0 0 0 0 0 0 0 0 0 0 0 0 0 0 0 0 0 0 0 0 0 0 0 0 0 0 0 0 0 0 0 0 0 0
2 2 1 1 1 1 1 0 0 0 0 0 0 0 0 0 0 0 0 0 0 0 0 0 0 0 0 0 0 0 0 0 0 0 0 0 0 0 0 0 0 0 0
2 2 2 1 1 1 1 0 0 0 0 0 0 0 0 0 0 0 0 0 0 0 0 0 0 0 0 0 0 0 0 0 0 0 0 0 0 0 0 0 0 0 0
2 2 2 2 1 1 1 0 0 0 0 0 0 0 0 0 0 0 0 0 0 0 0 0 0 0 0 0 0 0 0 0 0 0 0 0 0 0 0 0 0 0 0
2 2 2 2 1 1 1 0 0 0 0 0 0 0 0 0 0 0 0 0 0 0 0 0 0 0 0 0 0 0 0 0 0 0 0 0 0 0 0 0 0 0 0
2 1 1 1 1 1 1 0 0 0 0 0 0 0 0 0 0 0 0 0 0 0 0 0 0 0 0 0 0 0 0 0 0 0 0 0 0 0 0 0 0 0 0
1 1 1 1 1 0 0 0 0 0 0 0 0 0 0 0 0 0 0 0 0 0 0 0 0 0 0 0 0 0 0 0 0 0 0 0 0 0 0 0 0 0 0
Wind_Speed
4 3 2 2 2 2 2 2 2 1 1 2 3 5 5 4 4 4 4 11 11 11 11 11 11 10 10 9 9 9 9 8 8 7 7 8 7 7 7 7 7 6 6
5 4 3 3 2 2 3 3 3 2 2 2 2 5 6 5 5 4 4 6 11 11 11 11 11 11 10 10 9 9 9 8 8 7 7 7 7 7 7 7 6 6 6
6 5 4 3 3 3 3 2 2 2 2 2 2 4 5 5 5 5 5 3 5 9 11 11 11 11 10 10 10 9 9 8 8 8 7 7 7 7 6 6 6 6 6
6 5 4 3 3 2 3 3 2 2 1 2 2 2 3 4 6 6 5 4 3 4 7 11 11 10 11 11 11 10 10 9 9 9 8 8 8 7 7 6 6 6 7
6 5 3 3 3 3 2 3 2 2 2 2 2 2 2 3 5 6 6 6 5 5 4 8 10 11 12 12 11 11 11 10 10 10 10 10 10 9 8 7 7 7 7
6 5 3 3 3 3 2 2 2 2 2 2 2 1 1 2 3 4 6 5 5 6 6 5 5 7 12 11 11 11 11 11 11 11 11 11 11 10 9 9 9 9 9
5 5 4 4 3 3 3 4 3 2 1 2 3 2 2 1 2 3 4 4 6 6 6 6 4 4 5 10 11 11 12 12 12 12 11 11 11 10 10 10 10 10 10
5 5 5 4 4 3 3 3 3 2 1 2 3 2 1 3 3 2 2 4 5 5 6 7 6 6 5 4 7 12 12 12 12 12 11 11 11 10 11 11 11 11 11
5 5 5 4 4 4 3 3 3 4 2 1 2 4 3 3 2 2 2 3 4 4 4 5 7 7 7 5 4 9 12 11 11 11 11 10 10 9 10 11 11 11 11
5 5 5 5 4 3 3 3 3 3 4 2 0 1 2 4 3 1 2 2 3 4 4 5 6 6 6 5 6 8 11 11 11 11 10 10 9 9 9 9 10 10 11
4 5 5 5 4 3 4 3 3 3 3 3 2 1 1 1 2 3 1 2 2 2 3 4 4 4 5 5 5 7 11 11 11 10 9 9 9 9 9 9 10 10 10
3 4 5 5 4 4 4 4 4 4 3 3 2 2 2 2 2 2 2 2 2 2 2 2 3 3 4 4 7 9 10 10 10 9 8 8 7 8 8 8 9 8 8
3 5 5 5 4 4 5 4 4 3 4 3 3 2 2 2 2 3 3 2 1 2 1 1 2 2 3 3 4 7 8 9 9 8 7 6 6 5 5 5 5 6 6
4 5 5 5 5 5 5 4 3 3 3 3 3 3 2 1 2 2 3 3 1 1 1 2 1 1 1 1 3 5 3 6 7 6 6 5 4 4 4 3 3 2 2
4 5 5 5 5 5 5 4 3 3 3 2 2 2 2 1 1 1 2 3 4 2 1 2 2 2 0 1 1 2 2 3 5 5 5 4 4 4 3 2 1 1 0
4 5 5 5 5 4 4 4 3 3 3 2 2 2 1 1 1 1 1 1 2 4 2 1 1 2 2 2 3 2 2 3 2 2 3 3 3 2 1 1 1 1 1
4 4 5 4 4 4 4 4 3 3 4 2 2 2 2 2 1 1 1 2 1 3 2 0 1 2 3 3 3 3 3 3 2 3 3 2 2 2 2 2 2 2 2
3 4 4 4 4 4 3 4 4 3 4 3 3 3 2 2 2 1 2 2 1 2 3 2 1 2 3 2 3 3 3 3 2 5 4 4 3 4 4 4 4 4 4
3 3 3 3 3 3 3 3 3 3 4 3 2 3 2 3 2 2 2 2 1 2 3 3 2 2 2 2 3 3 4 3 3 4 5 5 4 5 5 5 5 5 4
4 3 3 3 3 3 3 3 4 5 5 5 4 3 2 3 3 2 2 2 3 4 4 4 3 2 2 2 3 3 3 3 3 4 5 5 5 5 5 5 4 4 4
4 4 4 3 3 3 3 5 6 7 6 6 5 4 5 7 7 5 4 3 4 4 4 4 3 3 3 3 2 2 2 2 3 3 3 3 3 3 3 3 3 2 2
5 5 5 5 5 4 6 8 7 7 7 6 6 5 6 7 10 12 12 10 7 5 4 4 3 3 2 2 2 3 2 2 2 3 3 3 3 3 2 1 2 2 1
6 6 5 6 6 6 9 10 10 7 6 5 5 5 5 6 8 8 11 13 12 12 8 5 5 3 2 1 2 3 3 3 1 3 2 2 3 3 2 4 5 4 4
6 6 6 6 7 7 9 10 11 8 7 6 5 5 6 5 6 7 8 8 7 7 6 5 5 4 3 2 2 2 2 2 2 3 3 2 3 2 3 3 5 7 6
7 6 5 6 7 6 8 10 10 7 7 7 6 6 6 6 8 9 8 7 7 6 8 10 9 8 7 7 4 4 3 3 2 3 3 2 2 2 2 3 4 7 7
7 7 7 6 6 6 8 10 9 6 7 6 5 6 8 8 9 9 7 7 7 4 4 6 6 7 6 6 7 4 2 2 2 1 2 1 2 2 3 3 3 3 4
Wind_Direction
156 157 157 163 172 161 166 179 190 186 170 154 149 147 153 153 152 156 161 171 169 167 166 165 165 164 164 163 163 164 163 161 160 157 157 158 158 157 156 157 158 157 157
158 157 161 173 184 181 181 186 187 170 164 151 152 150 159 158 163 161 165 177 178 175 174 175 175 174 175 175 175 176 176 175 171 170 170 170 170 171 171 172 171 171 169
157 157 156 170 186 175 165 164 169 142 147 153 146 147 156 166 169 173 174 175 183 186 185 185 185 185 186 187 187 187 188 186 184 183 184 183 183 183 184 185 186 185 185
159 153 154 169 179 163 150 149 147 128 137 148 153 159 156 169 176 180 179 183 187 193 197 195 194 195 197 199 198 198 198 197 195 194 194 195 196 197 196 198 198 198 198
158 151 156 167 166 146 144 158 140 141 151 169 176 168 167 170 181 186 190 194 196 197 197 203 203 203 206 208 208 209 208 207 206 206 206 207 208 207 207 209 210 209 210
158 148 154 166 157 138 137 142 139 136 154 164 164 153 191 191 186 190 197 197 202 204 202 205 206 214 215 215 215 217 216 215 213 214 214 215 216 214 214 216 217 218 220
159 152 160 162 154 154 163 156 136 133 139 125 88 35 345 321 223 205 200 195 204 206 201 205 206 211 220 222 222 222 223 222 219 218 218 218 220 219 219 221 223 225 226
168 166 160 164 159 149 148 150 138 136 136 133 127 108 14 338 318 240 208 201 204 201 204 207 209 212 218 216 226 227 227 227 226 223 221 220 222 223 223 225 227 228 230
173 164 165 163 163 155 162 168 156 146 157 185 150 145 153 215 278 305 244 216 200 197 207 206 211 216 214 213 221 230 229 227 228 228 225 223 224 226 228 229 231 232 233
172 167 165 166 163 162 172 180 162 152 147 164 199 192 174 161 159 272 310 270 220 206 206 210 214 216 211 205 216 221 226 226 227 228 228 225 223 224 227 231 236 238 238
175 171 169 163 165 170 175 171 153 154 156 162 172 178 151 129 139 146 237 291 296 242 215 212 207 209 205 202 208 219 220 222 224 226 226 224 224 226 229 233 240 245 244
181 180 173 170 173 175 181 180 169 164 167 158 159 158 155 160 182 161 187 233 253 270 248 218 212 215 209 204 215 217 216 218 220 223 226 226 226 228 233 237 243 248 250
189 193 180 177 179 183 186 180 171 174 171 167 171 171 171 183 171 160 159 198 236 284 312 285 234 218 211 201 216 219 219 215 216 217 221 224 226 230 235 241 247 254 259
197 188 180 183 187 185 185 175 172 180 172 177 184 176 172 189 171 168 167 158 145 333 345 308 322 295 220 188 212 204 207 207 209 210 214 217 220 223 226 229 234 247 264
196 188 185 186 188 183 179 166 172 180 166 174 181 176 172 180 158 158 157 160 155 166 259 303 327 331 334 121 188 171 162 185 199 204 204 208 215 218 213 205 201 211 280
188 179 185 182 181 181 177 170 172 176 172 185 177 170 169 168 128 110 124 126 143 154 179 250 293 338 19 60 68 86 94 101 153 175 185 200 204 197 182 173 171 137 82
174 172 177 177 176 177 174 169 178 176 175 184 183 170 181 161 137 119 100 105 119 132 150 233 1 17 39 48 46 49 61 63 67 88 112 118 120 124 121 115 111 102 84
166 167 164 168 175 173 172 172 180 174 167 166 174 159 167 143 119 106 98 99 117 133 142 144 36 23 35 45 57 59 56 63 65 68 83 89 95 98 101 98 97 94 81
146 149 146 152 158 159 162 169 157 142 136 136 145 141 143 125 114 94 93 86 82 87 101 116 92 36 33 38 48 46 46 36 58 64 69 74 80 91 99 101 100 94 85
125 124 127 138 139 139 141 137 127 119 109 96 86 92 99 114 122 113 93 87 93 88 90 98 87 49 31 16 47 44 37 27 31 32 37 54 57 74 82 93 100 100 94
110 104 104 104 105 109 116 123 123 119 113 103 88 81 83 89 87 90 97 98 102 102 98 94 85 66 40 31 22 5 42 31 30 24 26 31 32 35 33 47 64 71 74
95 93 92 92 87 93 99 110 119 116 114 111 105 93 85 79 82 79 79 79 86 105 112 104 93 91 72 46 26 38 46 47 19 354 37 24 28 24 11 20 18 18 350
92 87 85 89 90 91 99 107 111 112 107 105 106 104 94 85 83 83 75 70 66 69 85 109 103 100 96 61 68 53 52 66 35 323 41 31 10 9 2 25 20 8 350
97 93 88 91 94 90 97 102 103 96 90 85 89 98 101 92 89 95 89 76 66 56 66 82 102 99 98 93 87 100 103 78 31 359 32 56 350 344 347 350 2 8 358
99 94 92 93 94 88 92 102 106 100 93 82 77 80 94 94 93 99 96 90 76 59 63 75 83 82 75 69 72 71 59 69 39 346 360 62 339 333 334 332 345 353 346
102 97 86 80 90 92 93 101 109 108 102 94 80 73 76 87 88 93 97 98 90 73 74 71 60 52 49 44 48 72 100 97 92 344 330 40 349 6 349 321 323 334 339